Location: Nag� el Ma?a??a
(24.0667°N, 32.8833°E)
Time: 17:05:41
(UTC+00:00)

ALOS - Pass Details

Date: 25 September 2021
Orbit: 682 x 685 km, 97.9° (Epoch: 16 October)

Event Time Altitude Azimuth Distance (km) Brightness Sun altitude
Rises 02:29:57 0° 350° (N) 3,041 5.6 -16.4°
Reaches altitude 10° 02:32:45 10° 332° (NNW) 2,124 4.6 -15.7°
Enters shadow 02:35:16 18° 300° (WNW) 1,640 3.8 -15.2°
